Regional Weather Roundup
Issued by NWS

Home | Current Version | Previous Version | Graphics & Text | Print | Product List | Glossary On
Versions: 1 2 3 4 5 6 7 8 9 10 11 12 13 14 15 16 17 18 19 20 21 22 23 24 25 26 27 28 29 30 31 32 33 34 35 36 37 38 39 40 41 42 43 44 45 46 47 48 49 50
000
ASUS45 KBOU 240307
RWRCO

WEATHER ROUNDUP FOR COLORADO
NATIONAL WEATHER SERVICE DENVER/BOULDER CO
900 PM MDT SAT MAY 23 2015

NOTE: "FAIR" INDICATES FEW OR NO CLOUDS BELOW 12000 FEET WITH NO
SIGNIFICANT WEATHER AND/OR OBSTRUCTIONS TO VISIBILITY.

COZ001>005-013-030-031-240400-
...NORTHWEST COLORADO...

CITY           SKY/WX    TMP DP  RH WIND       PRES   REMARKS
CRAIG          CLOUDY    45  37  73 SE7       30.00R
HAYDEN         CLOUDY    43  34  70 SE10      30.02R
MEEKER         CLOUDY    45  37  73 MISG      30.01R
MOUNT WERNER   NOT AVBL
STEAMBOAT SPGS CLOUDY    41  35  81 E7        30.02F
WALDEN         CLOUDY    36  32  87 N13       30.04R
$$

COZ006>008-011-240400-
...WEST CENTRAL VALLEYS...

CITY           SKY/WX    TMP DP  RH WIND       PRES   REMARKS
GRAND JUNCTION MOCLDY    48  43  82 E7        29.97R
MONTROSE       CLOUDY    45  42  89 W3        30.03R
EAGLE          MOCLDY    45  36  70 NE6       30.04R
RIFLE          CLOUDY    52  36  54 S7        29.98R
DELTA          LGT RAIN  48  45  89 MISG      30.03R
NUCLA          CLOUDY    45  41  87 E7        30.05R
$$

COZ017>023-064>068-240400-
...SOUTHWEST COLORADO...

CITY           SKY/WX    TMP DP  RH WIND       PRES   REMARKS
DURANGO        CLOUDY    44  38  79 SW3       30.05S
CORTEZ         CLOUDY    45  42  89 NE6       30.02S
PAGOSA SPRINGS CLOUDY    47  31  53 W13       30.05R
TELLURIDE      CLOUDY    35  34  94 CALM      30.09R
WOLF CREEK PAS NOT AVBL
$$

COZ009-010-012-014-032>034-037-058>063-240400-
...CENTRAL COLORADO...

CITY           SKY/WX    TMP DP  RH WIND       PRES   REMARKS
ASPEN          MOCLDY    38  34  85 S3        30.04R
BUENA VISTA    PTCLDY    43  30  59 W5        30.02R
COPPER MTN     HAZE      28  23  80 S5        30.15S VSB<1/4 WCI  23
BERTHOUD PASS  HAZE      21  14  73 NW14G22   30.16R VSB<1/4 WCI   8
COTTONWOOD PAS CLOUDY    41  27  56 CALM      30.08R
GUNNISON       MOCLDY    45  28  53 SW6       30.05R
KREMMLING      CLOUDY    36  32  87 E6        30.07R
LEADVILLE      PTCLDY    31  28  89 NE3       30.09R
SALIDA         PTCLDY    46  33  61 W3        30.08R
SUNLIGHT       LGT SNOW  32  32 100 CALM      30.15S
WILKERSON PASS PTCLDY    30  21  69 W7        30.14S WCI  23
$$

COZ069>075-240400-
...SAN LUIS VALLEY/SANGRE DE CRISTO MOUNTAINS...

CITY           SKY/WX    TMP DP  RH WIND       PRES   REMARKS
ALAMOSA        CLEAR     46  24  42 SW6       30.01R
LA VETA PASS   PTCLDY   N/A N/A N/A MISG      30.09R
SAGUACHE       PTCLDY    45  28  53 N9        30.01R
$$

COZ035-036-038>040-240400-
...NORTHERN COLORADO FRONT RANGE...

CITY           SKY/WX    TMP DP  RH WIND       PRES   REMARKS
DENVER INTL AP RAIN      45  41  86 SW6       29.99R FOG
DMNS CITY PARK   N/A     47  44  88 W2G10     29.97R
AURORA         MOCLDY    45  44  94 NE8       29.97S
FRONT RANGE AP RAIN      50  45  81 SW23G35   30.01R
ERIE MUNI ARPT DRIZZLE   50  45  84 W7        29.97R
BOULDER MUN AP RAIN      46  43  87 N12       29.96S
CENTENNIAL     MOCLDY    44  41  89 S3        29.98R
BROOMFIELD     MOCLDY    50  46  87 N8        29.97R
FORT COLLINS   MOCLDY    52  46  82 E3        29.97R
LONGMONT       HVY RAIN  51  46  84 W7        30.00R
$$

COZ041-046-047-076>085-087-088-240400-
...PIKES PEAK/PALMER DIVIDE AND SOUTHERN FOOTHILLS...

CITY           SKY/WX    TMP DP  RH WIND       PRES   REMARKS
COLO. SPRINGS  MOCLDY    51  42  71 NE10      29.95S
A. F. ACADEMY  PTCLDY    46  34  62 NW8       29.95S
ELLICOTT       NOT AVBL
FALCON         MOCLDY    47  40  77 N10       29.98F
FORT CARSON    MOCLDY    52  44  73 NW6       29.92S
LIMON          PTCLDY    46  42  86 SW5       29.94R
MONUMENT HILL  NOT AVBL
TRINIDAD       PTCLDY    53  46  77 NE6       29.90S
$$

COZ042>045-048>051-090-091-240400-
...NORTHEAST COLORADO...

CITY           SKY/WX    TMP DP  RH WIND       PRES   REMARKS
GREELEY ARPT   MOCLDY    52  46  82 CALM      29.96R
AKRON          CLOUDY    50  48  93 NE6       29.91R
BURLINGTON     CLOUDY    51  48  89 E5        29.88F
WRAY           LGT RAIN  55  55 100 NE7       29.89F
STERLING       DRIZZLE   50  50 100 E8        29.89S
HOLYOKE        NOT AVBL
FORT MORGAN    CLOUDY    48  46  91 NE5       29.93R
$$

COZ086-089-092>099-240400-
...SOUTHEAST COLORADO...

CITY           SKY/WX    TMP DP  RH WIND       PRES   REMARKS
PUEBLO         PTCLDY    55  49  80 SE8       29.89S
LA JUNTA       TSTM      55  51  86 N10       29.87R
LAMAR          CLOUDY    56  55  97 E10       29.83S
SPRINGFIELD      N/A     56  55  97 S17       29.83S
$$



USA.gov is the U.S. government's official web portal to all federal, state and local government web resources and services.